Regional Weather Roundup
Issued by NWS Charleston, WV

Home | Current Version | Previous Version | Text Only | Print | Product List | Glossary Off
Versions: 1 2 3 4 5 6 7 8 9 10 11 12 13 14 15 16 17 18 19 20 21 22 23 24 25 26 27 28 29 30 31 32 33 34 35 36 37 38 39 40 41 42 43 44 45 46 47 48 49 50

000
ASUS41 KRLX 272310
RWRRLX
West Virginia Regional Weather Roundup
National Weather Service Charleston WV
700 PM EDT FRI MAR 27 2015

Note: "fair" indicates few or no clouds below 12,000 feet with no
significant weather and/or obstructions to visibility.

WVZ003-280000-
Northern Panhandle of West Virginia

CITY           SKY/WX    TMP DP  RH WIND       PRES   REMARKS
WHEELING       CLOUDY    28  17  63 NW15      29.92R
$$

WVZ009-280000-
Northwest West Virginia

CITY           SKY/WX    TMP DP  RH WIND       PRES   REMARKS
PARKERSBURG    CLOUDY    33  22  63 NW16G22   29.97R
$$

WVZ006-280000-
Western West Virginia

CITY           SKY/WX    TMP DP  RH WIND       PRES   REMARKS
HUNTINGTON     CLOUDY    35  23  61 N15G21    29.95R
$$

WVZ015-280000-
West Central West Virginia

CITY           SKY/WX    TMP DP  RH WIND       PRES   REMARKS
CHARLESTON     CLOUDY    37  21  52 NW13G21   29.91R
$$

WVZ022-031-280000-
North Central West Virginia

CITY           SKY/WX    TMP DP  RH WIND       PRES   REMARKS
CLARKSBURG     CLOUDY    35  25  66 NW8       29.87R
MORGANTOWN     CLOUDY    33  22  63 N7        29.88R
$$

WVZ025-035-042-045-280000-
Southern West Virginia

CITY           SKY/WX    TMP DP  RH WIND       PRES   REMARKS
BECKLEY        CLOUDY    36  21  54 NW12      29.80R
LOGAN          FLURRIES  36  25  64 NW13G18   29.85R
BLUEFIELD      CLOUDY    38  21  50 NW10G20   29.79R
LEWISBURG      CLOUDY    39  22  50 N9        29.80R
$$

WVZ047-280000-
Northern Mountains of West Virginia

CITY           SKY/WX    TMP DP  RH WIND       PRES   REMARKS
ELKINS         FLURRIES  33  23  66 NW10      29.83R
$$

WVZ052-280000-
Eastern Panhandle of West Virginia

CITY           SKY/WX    TMP DP  RH WIND       PRES   REMARKS
MARTINSBURG    CLOUDY    45  24  43 NW10      29.80R
PETERSBURG     CLOUDY    41  22  47 NW9       29.84R
$$



USA.gov is the U.S. government's official web portal to all federal, state and local government web resources and services.